Other Public Products
Issued by NWS Charleston, SC

Current Version | Previous Version | Graphics & Text | Print | Product List | Glossary On
Versions: 1 2 3 4 5 6 7 8 9 10 11 12 13 14 15 16 17 18 19 20 21 22 23 24 25 26 27 28 29 30 31 32 33 34 35 36 37 38 39 40 41 42 43 44 45 46 47 48 49 50
000
FPUS82 KCHS 290212
OPUCHS

TEST...KCHS/KSAV Gateway Observations...TEST
National Weather Service Charleston SC
1000 PM EDT SUN MAY 28 2017

NOTE: "fair" indicates few or no clouds below 12,000 feet with no
significant weather and/or obstructions to visibility.

SCZ050-WAZ558-NCZ071-TXZ119-213-PAZ071-DCZ001-FLZ074-172-MI076-
NYZ176-178-MAZ016-IL014-TNZ027-NJZ106-GAZ044-MD014-290300-

...Gateway Observations for Charleston International...

CITY           SKY/WX    TMP DP  RH WIND       PRES   REMARKS
Chas Airport   PTCLDY    78  73  84 S9        29.89R
Seattle        MOSUNNY   83  48  29 N9        30.00F
Charlotte      MOCLDY    68  65  90 NW3       29.88S
Dallas DFW     CLOUDY    75  69  81 N6        29.91R
Dallas Love    CLOUDY    76  68  76 E5        29.93R
Philladelphia  LGT RAIN  61  57  87 E12       29.88S
Wash National  CLOUDY    67  65  93 E5        29.84R
Baltimore      LGT RAIN  64  64 100 E7        29.84S
Miami          PTCLDY    86  69  56 W5        30.02R HX  90
Detroit        TSTM      62  59  90 W7        29.72R
Newark         CLOUDY    62  52  69 SE12      29.93F
Laguardia      CLOUDY    63  50  62 SE8       29.93F
J F K          CLOUDY    61  54  77 E12G20    29.94F
Boston Logan   CLOUDY    60  48  64 S9        30.00R
Ft. Lauderdale PTCLDY    85  78  80 SE15      30.00R HX  96
Chicago O`Hare PTCLDY    70  47  43 W8        29.75R
Chicago Midway PTCLDY    72  50  45 W6        29.76R
Houston Bush   CLOUDY    83  74  74 S6        29.91R
Houston Hobby  CLOUDY    81  75  82 SE5       29.91R
Nashville      MOCLDY    74  63  68 W5        29.91S
Atlanta        CLOUDY    75  66  73 W7        29.93S

$$

GAZ044-118-TXZ119-213-NCZ071-DCZ001-MDZ014-506-PAZ021-071-NJZ106-
NYZ176-178-MAZ106-OHZ011-021-055-MIZ076-KYZ091-ILZ014-INZ047-
MNZ060-ONZ431-290300-

...Gateway Observations for Savannah International...

CITY           SKY/WX    TMP DP  RH WIND       PRES   REMARKS
Savannah Arpt  CLEAR     81  67  62 CALM      29.91R
Atlanta        CLOUDY    75  66  73 W7        29.93S
Charlotte      MOCLDY    68  65  90 NW3       29.88S
Dallas DFW     CLOUDY    75  69  81 N6        29.91R
Houston Bush   CLOUDY    83  74  74 S6        29.91R
Wash National  CLOUDY    67  65  93 E5        29.84R
Wash Dulles    CLOUDY    66  63  90 E3        29.84S
Baltimore      LGT RAIN  64  64 100 E7        29.84S
Philadelphia   LGT RAIN  61  57  87 E12       29.88S
Newark         CLOUDY    62  52  69 SE12      29.93F
Laguardia      CLOUDY    63  50  62 SE8       29.93F
J F K          CLOUDY    61  54  77 E12G20    29.94F
Boston         CLOUDY    60  48  64 S9        30.00R
Pittsburg      CLOUDY    72  64  76 SW6       29.77R
Akron          CLOUDY    65  59  81 CALM      29.77R THUNDER
Cleveland      TSTM      65  62  90 SW13G28   29.79R
Cincinnati     TSTM      68  64  87 W8        29.83R FOG
Columbus       CLOUDY    70  63  78 SW10      29.80R
Detroit        TSTM      62  59  90 W7        29.72R
Chicago O`Hare PTCLDY    70  47  43 W8        29.75R
Minneapolis    MOCLDY    58  48  69 NW13      29.74R
Indianapolis   PTCLDY    63  62  97 SW5       29.81R
Toronto Canada CLOUDY    64  57  77 NE6       29.69F

$$




USA.gov is the U.S. government's official web portal to all federal, state and local government web resources and services.